Palma De Mallorca, Spain

9:55 AM CEST on September 29, 2016 (GMT +0200)
Palma De Mallorca

Weather History for LEPA - January, 2014

Change the Weather History Date:

Monday, January 20, 2014

  Actual Average Record
Temperature  
Mean Temperature 52 °F -  
Max Temperature 57 °F 58 °F 66 °F (1997)
Min Temperature 48 °F 39 °F 35 °F (1999)
Degree Days  
Heating Degree Days 12    
Growing Degree Days 2 (Base 50)    
Moisture  
Dew Point 39 °F    
Average Humidity 59    
Maximum Humidity 94    
Minimum Humidity 34    
Precipitation  
Precipitation 0.35 in - - ()
Sea Level Pressure  
Sea Level Pressure 29.76 in    
Wind  
Wind Speed 10 mph ()    
Max Wind Speed 24 mph    
Max Gust Speed 37 mph    
Visibility 6.9 miles    
Events Rain    
Averages and records for this station are not official NWS values.
T = Trace of Precipitation, MM = Missing Value Source: Averaged Metar Reports

Daily Weather History Graph

Daily Weather History Graph

Search for Another Location

Airport or City:

Trip Planner

Search our weather history database for the weather conditions in past years. The results will help you decide how hot, cold, wet, or windy it might be!

Date:

Astronomy

Jan. 20, 2014 Rise Set
Actual Time 8:05 AM CET 5:54 PM CET
Civil Twilight 7:36 AM CET 6:24 PM CET
Nautical Twilight 7:03 AM CET 6:56 PM CET
Astronomical Twilight 6:31 AM CET 7:29 PM CET
Moon 10:13 PM CET (1/20) 9:58 AM CET (1/20)
Length of Visible Light 10h 47m
Length of Day
9h 49m
Waning Gibbous, 84% of the Moon is Illuminated
Jan 20
Waning Gibbous
Jan 24
Last Quarter
Jan 30
New
Feb 6
First Quarter
Feb 15
Full

Hourly Weather History & Observations

Time (CET) Temp. Dew Point Humidity Pressure Visibility Wind Dir Wind Speed Gust Speed Precip Events Conditions
12:00 AM 49 °F 48 °F 94% 29.57 in - NNE 9.2 mph - -   Unknown Precipitation
12:00 AM 48.2 °F 46.4 °F 93% 29.56 in 4.3 mi ENE 2.3 mph - N/A Rain Rain
12:10 AM 48.2 °F 46.4 °F 93% 29.56 in 6.2 mi NNE 1.2 mph - N/A   Mostly Cloudy
12:30 AM 48.2 °F 46.4 °F 93% 29.56 in 6.2 mi North 3.5 mph - N/A   Mostly Cloudy
1:00 AM 50 °F 48 °F 91% 29.59 in 9 mi Calm Calm - -   Partly Cloudy
1:00 AM 50.0 °F 46.4 °F 87% 29.59 in 6.2 mi Variable 1.2 mph - N/A   Mostly Cloudy
1:30 AM 50.0 °F 46.4 °F 87% 29.59 in 6.2 mi Variable 2.3 mph - N/A   Mostly Cloudy
2:00 AM 52 °F 46 °F 74% 29.61 in - WNW 9.2 mph - -   Unknown Precipitation
2:00 AM 51.8 °F 46.4 °F 82% 29.59 in 6.2 mi NW 9.2 mph - N/A   Mostly Cloudy
2:30 AM 51.8 °F 46.4 °F 82% 29.59 in 5.6 mi WNW 11.5 mph - N/A Rain Light Rain
3:00 AM 50 °F 46 °F 81% 29.64 in - WNW 9.2 mph - -   Unknown Precipitation
3:00 AM 50.0 °F 46.4 °F 87% 29.62 in 5.6 mi NW 11.5 mph - N/A Rain Light Rain
3:30 AM 48.2 °F 46.4 °F 93% 29.62 in 6.2 mi NW 8.1 mph - N/A Rain Light Rain
4:00 AM 51 °F 46 °F 76% 29.66 in 7 mi NW 9.2 mph - -   Overcast
4:00 AM 50.0 °F 46.4 °F 87% 29.65 in 6.2 mi NW 3.5 mph - N/A   Mostly Cloudy
4:30 AM 50.0 °F 42.8 °F 76% 29.65 in 6.2 mi NW 12.7 mph - N/A   Mostly Cloudy
5:00 AM 50 °F 41 °F 63% 29.68 in - NW 9.2 mph - -  
5:00 AM 50.0 °F 41.0 °F 71% 29.65 in 6.2 mi NW 8.1 mph - N/A   Mostly Cloudy
5:30 AM 50.0 °F 39.2 °F 66% 29.65 in 6.2 mi WNW 8.1 mph - N/A   Partly Cloudy
6:00 AM 50 °F 38 °F 54% 29.69 in - NW 10.4 mph - -  
6:00 AM 50.0 °F 39.2 °F 66% 29.68 in 6.2 mi NW 10.4 mph - N/A   Partly Cloudy
6:30 AM 50.0 °F 37.4 °F 62% 29.68 in 6.2 mi WNW 12.7 mph - N/A   Partly Cloudy
7:00 AM 51 °F 38 °F 52% 29.71 in 12 mi WNW 9.2 mph - -   Partly Cloudy
7:00 AM 50.0 °F 39.2 °F 66% 29.68 in 6.2 mi WNW 12.7 mph - N/A   Scattered Clouds
7:30 AM 51.8 °F 37.4 °F 58% 29.71 in 6.2 mi NW 13.8 mph 25.3 mph N/A   Partly Cloudy
8:00 AM 52 °F 38 °F 47% 29.73 in - WNW 10.4 mph - -  
8:00 AM 51.8 °F 39.2 °F 62% 29.71 in 5.6 mi WNW 13.8 mph - N/A Rain Light Rain
8:30 AM 51.8 °F 37.4 °F 58% 29.74 in 6.2 mi NW 10.4 mph - N/A   Scattered Clouds
9:00 AM 52 °F 37 °F 45% 29.75 in - WNW 12.7 mph - -  
9:00 AM 51.8 °F 37.4 °F 58% 29.74 in 6.2 mi WNW 13.8 mph - N/A   Scattered Clouds
9:30 AM 51.8 °F 37.4 °F 58% 29.77 in 6.2 mi WNW 15.0 mph - N/A   Scattered Clouds
10:00 AM 54 °F 37 °F 40% 29.77 in - NW 17.3 mph - -  
10:00 AM 53.6 °F 37.4 °F 54% 29.77 in 6.2 mi NW 18.4 mph 33.4 mph N/A   Scattered Clouds
10:30 AM 53.6 °F 37.4 °F 54% 29.77 in 6.2 mi NW 24.2 mph - N/A   Scattered Clouds
11:00 AM 53 °F 37 °F 43% 29.81 in - WNW 17.3 mph - -  
11:00 AM 53.6 °F 37.4 °F 54% 29.80 in 6.2 mi NW 20.7 mph 33.4 mph N/A   Scattered Clouds
11:30 AM 51.8 °F 37.4 °F 58% 29.80 in 6.2 mi NW 18.4 mph - N/A   Scattered Clouds
12:00 PM 56 °F 36 °F 36% 29.81 in - NW 15.0 mph - -  
12:00 PM 55.4 °F 37.4 °F 51% 29.80 in 6.2 mi NW 20.7 mph 36.8 mph N/A   Scattered Clouds
12:30 PM 55.4 °F 39.2 °F 54% 29.80 in 6.2 mi NW 21.9 mph - N/A   Scattered Clouds
1:00 PM 55 °F 37 °F 39% 29.81 in 19 mi NW 18.4 mph - -   Partly Cloudy
1:00 PM 53.6 °F 35.6 °F 51% 29.80 in 6.2 mi NW 21.9 mph - N/A   Scattered Clouds
1:30 PM 55.4 °F 35.6 °F 47% 29.80 in 6.2 mi WNW 23.0 mph - N/A   Scattered Clouds
2:00 PM 55 °F 36 °F 37% 29.81 in - NW 15.0 mph - -  
2:00 PM 53.6 °F 37.4 °F 54% 29.80 in 6.2 mi NW 19.6 mph 31.1 mph N/A   Scattered Clouds
2:30 PM 53.6 °F 37.4 °F 54% 29.80 in 6.2 mi WNW 12.7 mph - N/A   Mostly Cloudy
3:00 PM 55 °F 35 °F 34% 29.82 in - WNW 18.4 mph - -  
3:00 PM 53.6 °F 35.6 °F 51% 29.80 in 6.2 mi WNW 17.3 mph - N/A   Mostly Cloudy
3:30 PM 53.6 °F 37.4 °F 54% 29.83 in 6.2 mi WNW 17.3 mph - N/A   Mostly Cloudy
4:00 PM 55 °F 36 °F 37% 29.84 in 19 mi WNW 13.8 mph - -   Mostly Cloudy
4:00 PM 53.6 °F 35.6 °F 51% 29.83 in 6.2 mi NW 17.3 mph - N/A   Mostly Cloudy
4:30 PM 53.6 °F 37.4 °F 54% 29.83 in 6.2 mi WNW 16.1 mph - N/A   Mostly Cloudy
5:00 PM 54 °F 35 °F 37% 29.85 in - WNW 10.4 mph - -  
5:00 PM 53.6 °F 35.6 °F 51% 29.83 in 6.2 mi WNW 10.4 mph - N/A   Mostly Cloudy
5:30 PM 53.6 °F 35.6 °F 51% 29.83 in 6.2 mi WNW 15.0 mph - N/A   Mostly Cloudy
6:00 PM 54 °F 36 °F 39% 29.86 in - WNW 12.7 mph - -  
6:00 PM 53.6 °F 37.4 °F 54% 29.86 in 6.2 mi NW 13.8 mph - N/A   Mostly Cloudy
6:30 PM 53.6 °F 37.4 °F 54% 29.86 in 6.2 mi WNW 6.9 mph - N/A   Mostly Cloudy
7:00 PM 54 °F 36 °F 38% 29.88 in 9 mi WNW 10.4 mph - -   Mostly Cloudy
7:00 PM 53.6 °F 37.4 °F 54% 29.86 in 6.2 mi WNW 8.1 mph 21.9 mph N/A   Mostly Cloudy
7:30 PM 53.6 °F 35.6 °F 51% 29.86 in 6.2 mi WNW 11.5 mph - N/A   Scattered Clouds
8:00 PM 54 °F 34 °F 34% 29.89 in - WNW 13.8 mph - -  
8:00 PM 53.6 °F 33.8 °F 47% 29.89 in 6.2 mi WNW 12.7 mph - N/A   Partly Cloudy
8:30 PM 53.6 °F 35.6 °F 51% 29.89 in 6.2 mi WNW 13.8 mph - N/A   Scattered Clouds
9:00 PM 53 °F 35 °F 38% 29.91 in - NW 13.8 mph - -  
9:00 PM 53.6 °F 35.6 °F 51% 29.89 in 6.2 mi NW 13.8 mph 26.5 mph N/A   Partly Cloudy
9:30 PM 53.6 °F 35.6 °F 51% 29.89 in 6.2 mi WNW 9.2 mph - N/A   Partly Cloudy
10:00 PM 53 °F 36 °F 40% 29.92 in 9 mi WNW 13.8 mph - -   Scattered Clouds
10:00 PM 51.8 °F 35.6 °F 54% 29.92 in 6.2 mi WNW 9.2 mph 25.3 mph N/A   Partly Cloudy
10:30 PM 53.6 °F 37.4 °F 54% 29.92 in 6.2 mi WNW 9.2 mph - N/A   Partly Cloudy
11:00 PM 52 °F 36 °F 43% 29.92 in - WNW 15.0 mph - -  
11:00 PM 51.8 °F 37.4 °F 58% 29.92 in 6.2 mi WNW 16.1 mph - N/A   Partly Cloudy
11:30 PM 51.8 °F 37.4 °F 58% 29.92 in 6.2 mi WNW 13.8 mph - N/A   Partly Cloudy